Regional Weather Roundup
Issued by NWS

Home | Current Version | Previous Version | Graphics & Text | Print | Product List | Glossary On
Versions: 1 2 3 4 5 6 7 8 9 10 11 12 13 14 15 16 17 18 19 20 21 22 23 24 25 26 27 28 29 30 31 32 33 34 35 36 37 38 39 40 41 42 43 44 45 46 47 48 49 50
000
ASUS43 KTOP 101059
RWRKS

WEATHER ROUNDUP FOR KANSAS
NATIONAL WEATHER SERVICE GOODLAND KS
600 AM CDT THU JUL 10 2014

NOTE:  "FAIR" INDICATES FEW OR NO CLOUDS BELOW 12,000 FEET WITH NO
SIGNIFICANT WEATHER AND/OR OBSTRUCTIONS TO VISIBILITY.

KSZ001>006-013>018-027>032-041>047-101200-
NORTHWEST KANSAS

CITY           SKY/WX    TMP DP  RH WIND       PRES   REMARKS
GOODLAND       CLOUDY    64  62  93 SE15G24   30.01R
HAYS           CLOUDY    66  61  82 SE8       30.02R
HILL CITY      CLOUDY    66  63  90 E13       30.02F
RUSSELL        LGT RAIN  67  64  90 S13       29.99R
$$

KSZ061>065-074>080-084>089-101200-
SOUTHWEST KANSAS

CITY           SKY/WX    TMP DP  RH WIND       PRES   REMARKS
DODGE CITY     MOCLDY    65  59  81 SE22G30   30.01R
ELKHART          N/A     66  54  65 SE7         N/A
GARDEN CITY    CLOUDY    68  65  90 E10G22    29.98R
GREAT BEND     CLOUDY    66  61  82 S20G28    30.01R
LIBERAL        PTCLDY    70  57  64 SE7       29.99R
$$

KSZ066>073-081>083-090>101-101200-
SOUTHEAST KANSAS

CITY           SKY/WX    TMP DP  RH WIND       PRES   REMARKS
CHANUTE        CLOUDY    67  62  84 E3        30.04R
COFFEYVILLE    CLOUDY    72  60  66 NE7       30.01R
HUTCHINSON     LGT RAIN  68  65  90 S16       30.06F
MEDICINE LODGE   N/A     67  65  93 E18       30.08R
NEWTON         CLOUDY    64  59  82 SW17G24   30.10F
PARSONS        CLOUDY    70  60  70 CALM      30.04R
WICHITA INTL   LGT RAIN  65  65 100 S8        30.10S FOG
WICHITA JABRA  RAIN      66  65  96 SW13      30.11R
WICHITA MCCONL TSTM      66  66 100 S10       30.13R FOG
WINFIELD       TSTM      65  63  93 NW3       30.13R
$$

KSZ007>012-019>026-033>040-048>060-102>105-101200-
NORTHEAST KANSAS

CITY           SKY/WX    TMP DP  RH WIND       PRES   REMARKS
CONCORDIA      CLOUDY    68  62  81 S14       29.97F
EMPORIA        CLOUDY    67  62  84 S8        30.05R
LAWRENCE       CLOUDY    66  62  87 E7        30.06R
MANHATTAN      CLOUDY    71  61  70 E5        30.02R
OLATHE IND     MOCLDY    67  60  78 SE9       30.07R
OLATHE EXE     PTCLDY    67  60  78 S8        30.06R
SALINA         LGT RAIN  69  66  90 S15       30.00F
TOPEKA BILLARD CLOUDY    71  62  73 SE7       30.05R
TOPEKA FORBES  CLOUDY    69  63  81 SE9       30.05R
$$


USA.gov is the U.S. government's official web portal to all federal, state and local government web resources and services.